Theta_e
316 318 318 319 322 328 331 335 338 337 331 328 325 330 331 326 328 327 325 336 339 339 339 338 338 339 338 338 336 336 335 334 333 334 329 324 318 315 313 313 315 319 313
307 308 311 312 313 315 314 316 321 328 333 334 333 338 338 338 339 340 337 334 336 336 334 339 338 337 337 337 337 335 334 334 333 332 325 319 313 310 310 312 314 315 307
304 305 306 307 307 310 314 312 311 312 313 316 322 328 332 333 334 336 338 338 338 339 340 339 338 338 339 338 336 335 334 333 332 330 318 312 310 310 307 308 309 308 303
303 304 304 304 305 306 308 311 312 311 310 310 310 311 315 322 328 329 330 332 334 338 339 339 339 339 338 336 336 334 332 331 329 327 316 311 309 307 306 303 300 300 297
304 303 303 303 304 304 304 304 304 306 309 309 308 308 308 308 312 321 325 327 328 330 332 334 335 335 336 336 335 334 331 330 325 319 311 307 305 303 303 301 299 296 295
304 304 304 304 303 303 303 303 303 303 304 308 309 308 308 307 306 305 308 319 323 324 326 328 329 331 332 333 334 336 335 331 323 318 312 309 307 305 302 299 294 294 294
303 303 303 303 304 304 303 303 303 303 303 304 306 307 307 307 306 304 303 305 310 318 320 322 323 325 326 327 329 329 329 326 325 324 315 312 309 307 302 297 295 297 292
302 302 303 303 303 304 304 304 303 303 303 304 304 304 305 307 306 305 305 303 304 306 314 316 318 321 322 324 323 323 321 319 319 318 317 315 313 310 306 300 298 297 292
300 300 299 299 300 300 301 304 305 303 303 303 303 304 304 306 306 306 305 304 303 305 307 311 313 315 318 319 317 316 311 310 309 311 312 310 308 306 304 300 294 293 290
298 299 299 299 299 300 302 303 303 304 302 302 303 303 303 305 307 306 305 304 303 304 306 307 310 313 314 313 313 313 307 303 305 304 303 303 302 298 299 300 297 294 292
297 298 298 298 300 300 300 300 300 301 301 302 301 302 303 304 306 306 305 304 303 303 306 308 308 309 309 310 310 310 310 303 299 302 298 296 296 296 296 296 297 298 295
296 296 296 296 297 297 298 298 297 297 297 298 299 300 302 303 305 306 304 304 303 303 302 304 306 306 307 308 308 307 304 300 297 294 293 292 292 293 293 293 293 293 293
294 294 294 294 295 295 295 295 295 296 296 296 297 296 298 302 302 304 304 303 303 301 302 302 304 304 304 303 305 303 299 297 293 291 290 290 290 290 290 289 288 288 287
292 291 291 291 291 292 293 293 294 294 294 294 295 296 296 297 299 301 303 303 303 300 301 302 300 298 299 300 295 296 296 294 293 291 290 289 288 287 286 286 286 285 285
290 290 290 290 290 289 289 290 291 291 292 292 293 295 295 296 297 299 301 302 301 300 298 297 294 293 293 292 290 291 292 292 292 290 289 287 287 286 286 286 286 285 284
289 289 289 289 289 289 289 289 289 289 290 291 292 292 293 295 296 296 300 297 298 298 296 294 292 292 291 290 290 290 291 292 290 290 288 287 287 287 286 286 286 284 283
289 289 289 289 288 288 288 288 289 289 289 290 291 292 293 294 296 297 297 296 296 297 297 294 292 292 291 291 291 290 290 290 291 290 288 288 287 287 287 287 286 284 283
289 288 288 288 288 288 288 288 288 288 289 290 291 292 292 294 296 297 298 297 293 293 295 294 293 293 292 291 290 290 290 290 289 289 288 288 288 288 287 286 285 285 284
288 288 288 288 288 287 288 288 288 288 288 289 290 291 292 293 295 298 298 295 293 292 293 294 294 293 292 291 290 290 289 289 289 288 288 288 288 287 286 285 284 284 283
287 287 287 287 288 288 288 288 288 288 288 289 290 291 293 294 294 293 295 294 294 293 292 293 294 294 292 291 290 289 289 288 288 288 288 287 287 286 284 283 283 282 281
287 287 287 287 287 288 288 288 289 289 289 289 290 291 293 293 294 293 292 293 292 292 293 293 293 293 292 290 290 289 288 288 288 288 287 287 285 284 284 283 282 281 280
286 287 287 287 287 288 288 288 289 289 289 290 290 291 291 293 294 294 293 294 293 294 294 294 293 291 291 290 289 288 288 288 288 287 286 286 284 283 282 281 281 280 279
286 287 287 287 287 287 288 287 288 289 289 290 290 290 291 292 292 293 293 293 293 292 293 293 292 290 290 290 289 289 288 288 287 287 286 285 284 283 282 282 280 279 279
286 286 287 286 286 286 287 287 287 287 288 289 290 290 290 291 291 291 291 291 291 291 291 291 291 290 289 289 288 288 289 288 288 288 287 285 283 283 282 281 280 279 279
286 286 286 286 286 286 286 286 288 288 288 289 289 289 289 289 289 289 289 289 289 290 290 290 289 289 288 288 288 288 288 288 288 288 286 285 284 283 282 281 279 279 278
285 285 285 285 285 285 285 285 285 286 287 288 288 288 288 288 288 288 288 288 288 288 288 288 287 287 287 288 288 288 289 288 287 287 286 285 284 283 282 281 280 280 279
Wind_Speed
32 30 29 28 25 18 14 6 13 17 18 22 15 34 40 28 33 27 38 41 26 27 32 34 39 38 37 33 31 29 31 30 15 18 21 23 26 31 33 33 31 30 33
30 30 28 26 26 26 23 18 13 10 7 4 16 34 25 23 23 27 32 29 40 37 35 38 38 33 32 30 27 30 32 30 23 20 17 22 24 27 32 33 34 30 29
31 29 27 25 24 22 19 18 18 16 14 9 4 3 2 2 5 11 22 30 35 36 37 36 34 32 29 28 26 29 29 27 27 17 14 17 22 22 27 29 31 28 26
29 26 25 23 21 21 19 17 15 14 14 15 14 12 9 4 3 4 6 12 20 27 29 28 29 29 29 28 28 31 27 23 24 23 18 13 17 18 25 24 23 24 20
28 27 24 21 19 18 17 16 14 13 11 11 12 13 13 13 13 10 10 11 12 17 19 20 24 27 28 31 30 28 25 26 23 20 13 10 13 14 28 23 19 25 17
24 22 25 25 23 22 19 17 16 15 13 10 9 10 12 13 15 14 13 11 12 12 14 16 17 20 22 26 29 33 32 26 25 18 14 13 19 17 18 21 23 15 3
17 19 19 23 27 25 24 22 22 20 16 13 10 11 11 11 11 12 14 15 15 14 16 16 18 18 17 16 17 20 25 25 28 28 17 20 18 26 26 25 24 23 9
17 17 19 20 22 25 24 24 25 23 21 17 14 12 11 11 10 13 16 16 17 16 16 15 18 18 17 16 15 15 16 19 25 21 20 21 20 20 26 29 30 23 19
16 19 23 23 24 25 28 26 26 28 25 25 22 18 15 12 10 12 13 15 17 16 15 16 16 16 15 14 13 11 10 8 9 13 14 13 14 16 24 29 31 27 6
16 19 22 22 24 24 22 23 24 26 30 28 27 25 22 19 17 15 14 15 17 18 17 16 15 12 11 10 10 12 12 10 11 12 13 14 16 20 24 27 33 25 15
23 20 20 20 19 21 23 25 26 25 27 28 29 27 26 25 23 19 16 14 16 17 16 16 13 10 7 7 11 14 15 18 21 22 25 26 26 27 21 22 22 19 18
25 22 22 21 22 22 22 23 28 29 29 26 24 28 28 26 26 24 19 14 14 16 17 12 13 11 8 7 10 16 17 26 28 30 30 29 28 25 24 22 19 18 12
24 24 24 24 24 24 27 28 27 26 25 20 19 18 24 30 29 27 23 16 12 13 11 12 9 8 11 15 12 15 25 31 33 26 23 23 22 28 29 26 25 26 26
23 22 22 24 25 25 25 25 26 21 19 19 17 18 19 24 28 26 22 18 15 10 7 8 8 11 15 16 19 29 31 31 32 27 25 28 30 31 30 30 30 29 32
24 24 25 24 24 25 24 23 24 24 24 23 24 22 21 21 24 23 22 20 16 10 9 9 12 15 14 18 22 23 28 29 27 29 31 28 26 28 26 28 30 22 20
20 21 21 23 24 26 27 28 26 28 29 30 32 32 32 33 31 28 22 19 16 15 15 13 15 18 18 19 19 18 23 28 28 30 30 30 27 25 25 24 18 21 24
23 25 23 24 24 24 23 24 25 29 29 30 30 31 32 32 33 28 24 19 19 17 14 17 17 18 18 21 20 19 18 24 33 32 32 32 31 28 27 22 22 21 19
26 26 25 25 24 25 25 24 26 25 22 25 25 28 29 29 29 28 23 18 19 24 20 18 18 19 20 20 23 21 21 27 27 30 30 32 30 28 26 25 24 21 18
27 27 27 27 27 27 28 27 25 24 25 26 27 27 28 28 29 28 26 25 19 19 19 19 20 21 22 22 22 26 26 25 27 28 30 30 30 29 26 26 25 24 24
26 27 28 28 27 27 26 24 24 24 23 23 24 25 24 24 20 20 27 27 25 23 23 23 23 22 23 24 26 27 28 26 25 28 29 30 31 32 29 27 25 22 19
27 27 27 26 25 26 26 25 24 23 23 25 25 26 27 23 21 20 22 25 23 22 23 23 24 24 25 26 29 28 29 28 28 28 29 28 31 30 32 32 30 26 24
26 26 25 24 26 25 25 26 25 24 24 23 25 25 27 27 23 22 25 28 29 29 27 25 24 25 27 30 31 31 32 31 33 35 32 31 28 30 31 30 28 28 25
25 24 25 25 25 26 23 23 22 21 21 21 21 20 19 20 20 22 24 26 28 28 27 25 25 24 26 29 32 36 37 36 36 40 41 35 32 29 30 28 28 28 25
24 24 23 24 24 24 22 22 21 21 20 18 14 11 11 14 18 18 19 20 23 24 25 25 25 26 29 31 33 35 38 39 41 41 41 41 35 32 29 28 26 26 27
24 22 22 22 22 22 22 21 19 18 15 12 8 4 1 6 11 14 17 20 22 23 23 23 24 27 31 35 36 38 39 40 39 39 39 38 39 35 32 29 30 31 32
23 22 22 21 21 21 19 19 18 16 14 12 10 9 9 11 14 17 19 21 22 23 23 23 26 29 33 36 37 39 39 39 38 37 36 36 35 35 33 35 34 31 31
Wind_Direction
62 62 59 57 62 76 84 128 215 228 252 252 261 279 261 245 258 269 278 276 225 247 253 258 248 251 241 247 244 247 240 236 243 253 248 244 235 226 217 216 215 228 234
55 58 59 61 59 60 60 60 57 63 96 142 237 240 255 256 253 238 240 229 252 253 251 242 243 241 246 249 247 238 243 243 236 245 230 230 226 223 222 213 216 223 228
40 42 45 47 51 57 62 62 59 54 56 64 56 45 5 346 257 249 249 242 241 246 245 238 241 244 255 255 249 249 248 236 229 227 213 211 217 219 211 211 215 219 211
22 22 25 26 31 38 43 48 47 46 44 44 46 45 36 16 327 317 276 257 255 251 255 261 260 260 258 255 248 255 246 225 219 211 206 198 209 210 210 195 194 202 192
8 8 3 3 7 11 17 20 22 22 22 28 29 27 24 23 15 353 318 310 290 274 268 265 269 266 266 268 255 255 245 230 218 198 189 185 188 173 198 200 188 176 171
346 343 350 357 353 351 348 351 351 355 356 355 358 8 10 8 7 358 345 323 302 302 299 285 282 277 272 268 262 262 255 238 215 197 203 208 211 212 187 175 153 153 177
341 339 335 334 337 343 343 338 333 332 333 336 330 329 339 344 348 348 343 338 329 321 307 303 293 284 289 289 281 273 261 242 238 236 206 211 201 214 190 165 164 160 146
339 345 345 344 338 336 334 333 329 323 312 304 301 299 311 310 325 335 339 338 337 330 314 307 295 291 292 291 286 278 260 246 236 236 235 240 239 229 213 187 171 157 137
320 324 324 326 325 324 322 327 328 324 316 306 298 293 288 289 284 306 321 328 326 316 316 308 303 298 289 289 280 247 220 222 236 235 231 223 221 214 203 181 151 138 119
323 320 317 317 316 315 315 319 320 324 316 309 299 290 289 287 277 285 306 313 314 317 312 311 304 298 296 284 265 230 188 173 191 162 149 158 166 170 176 186 167 144 129
320 318 321 315 312 314 313 314 315 319 317 310 298 290 282 275 270 273 286 297 302 300 297 305 304 300 300 269 252 235 220 185 162 155 148 146 146 148 152 162 162 168 145
318 314 308 308 308 309 308 312 315 310 304 299 299 294 284 273 268 265 270 282 292 289 291 295 301 293 283 252 240 233 207 172 158 149 141 140 142 140 140 146 147 143 130
315 317 319 316 311 307 299 297 301 305 304 289 282 279 283 286 277 262 252 250 261 274 280 290 282 272 257 225 219 217 186 169 154 145 142 141 142 144 139 129 123 119 114
317 314 314 313 308 309 305 300 292 285 291 289 282 275 272 276 279 265 251 239 245 256 255 270 256 218 208 207 193 180 175 171 159 151 143 144 145 135 130 131 123 118 111
320 317 315 311 308 306 299 293 288 282 277 273 270 268 265 267 275 284 270 242 231 224 208 196 184 186 180 174 172 175 169 162 155 150 142 141 141 138 137 136 134 123 116
307 307 303 301 302 301 299 296 292 288 285 281 278 273 268 268 275 282 277 233 209 201 190 194 185 187 177 175 182 179 167 161 157 151 146 145 143 144 141 138 132 126 124
311 310 308 301 296 293 294 297 299 300 292 286 286 281 277 275 266 272 265 224 214 205 208 199 192 194 191 187 184 185 176 166 167 158 153 150 149 149 144 141 137 137 138
309 308 305 300 297 296 292 289 289 288 290 290 282 278 276 276 266 258 245 227 207 207 208 203 200 200 196 190 184 179 175 168 165 157 154 151 151 149 142 143 144 146 145
310 307 307 304 300 298 294 289 286 286 285 284 286 281 276 268 266 251 232 213 203 205 204 206 211 208 201 194 186 177 174 170 163 156 150 149 148 146 142 143 142 146 147
313 311 306 304 302 300 299 295 289 286 279 274 272 265 265 257 243 228 217 208 210 210 201 200 209 214 205 190 181 174 167 162 157 149 146 146 147 148 139 139 139 135 132
315 312 309 307 308 301 300 293 290 285 278 273 266 266 256 241 235 221 213 209 205 199 201 203 209 210 201 188 178 171 160 153 151 146 142 143 143 137 141 142 140 132 128
313 310 310 308 306 303 301 299 294 289 282 274 268 261 258 247 234 218 213 216 213 214 221 213 210 203 194 185 177 165 154 151 150 146 142 140 139 135 134 132 131 129 131
316 314 317 314 312 309 306 308 303 301 297 286 277 263 250 234 224 215 210 211 209 205 207 205 200 191 192 188 183 171 158 156 155 152 146 142 141 138 137 135 135 133 135
322 320 318 318 317 316 315 315 317 322 321 318 317 297 253 229 217 206 200 197 191 189 191 191 190 187 182 177 169 163 160 160 160 158 154 148 143 142 138 136 137 139 136
326 326 326 324 323 324 326 329 330 334 336 348 357 7 111 162 159 164 170 173 173 174 176 180 180 178 173 169 165 163 159 162 161 156 156 153 149 152 147 144 143 143 143
330 335 332 331 331 335 339 342 348 359 5 23 47 70 98 110 123 134 144 149 148 152 158 163 163 162 162 161 160 158 155 159 155 154 154 152 150 149 151 147 148 145 145